Regional Weather Roundup
Issued by NWS Wakefield, VA

Home | Current Version | Previous Version | Graphics & Text | Print | Product List | Glossary On
Versions: 1 2 3 4 5 6 7 8 9 10 11 12 13 14 15 16 17 18 19 20 21 22 23 24 25 26 27 28 29 30 31 32 33 34 35 36 37 38 39 40 41 42 43 44 45 46 47 48 49 50
000
ASUS41 KAKQ 261714
RWRAKQ

REGIONAL WEATHER ROUNDUP
NATIONAL WEATHER SERVICE WAKEFIELD VA
100 PM EDT THU MAR 26 2015

Note: "fair" indicates few or no clouds below 12,000 feet with no
significant weather and/or obstructions to visibility. * = Denotes
station may not report precipitation (e.g., rain,snow,etc.),
thunder or fog.

VAZ042-051-052>054-056-261800-
NORTHERN VIRGINIA

CITY           SKY/WX    TMP DP  RH WIND       PRES   REMARKS
WASH NATIONAL  CLOUDY    57  54  89 S10       29.81F
DULLES         CLOUDY    64  57  77 S20G25    29.77F
FORT BELVOIR   CLOUDY    57  55  93 S6        29.80F
QUANTICO       PTSUNNY   55  52  89 S12       29.81F
FREDERICKSBRG* CLOUDY    62  62 100 S9        29.81F
STAFFORD*      CLOUDY    61  32  33 S8        29.84F
WARRENTON      PTSUNNY   70  64  80 S17G23    29.77F
CULPEPER*      MOSUNNY   70  59  68 S12G18    29.78F
MANASSAS*      CLOUDY    64  63  94 S14G22    29.79F
LEESBURG*      CLOUDY    63  59  88 S13       29.77F
WINCHESTER     PTSUNNY   70  50  49 SE10      29.71F
FRONT ROYAL*   FAIR      73  54  49 SW9G21    29.70F
LURAY*         FAIR      77  55  47 S16       29.72F
$$

VAZ048-049-060>072-079>083-261800-
CENTRAL AND SOUTH CENTRAL VIRGINIA

CITY           SKY/WX    TMP DP  RH WIND       PRES   REMARKS
RICHMOND       CLOUDY    71  61  70 S16       29.83F
CHESTERFIELD*  CLOUDY    72  54  53 S16G22    29.85F
PETERSBURG*    LGT RAIN  68  64  89 S5        29.85F
HANOVER        CLOUDY    70  61  73 SW7       29.82F
TAPPAHANNOCK*  RAIN      66  60  79 S7        29.85F
QUINTON*       CLOUDY    66  61  82 S8        29.85F
CHARLOTTSVILLE MOSUNNY   66  56  70 S18       29.78F
GORDONSVILLE*  CLOUDY    62  56  82 S20G25    29.78F
ORANGE*        CLOUDY    64  59  82 S10G17    29.80F
LOUISA*        CLOUDY    63  57  82 S9        29.79F
BUMPASS*       CLOUDY    60  58  92 S8        29.82F
FARMVILLE*     PTSUNNY   68  59  72 S14       29.82F
CREWE*         FAIR      70  56  61 MISG      29.83F
FORT PICKETT*  FAIR      72  58  62 SW15G24   29.84F
CHASE CITY*    FAIR      71  60  66 S5G17     29.85F
CLARKSVILLE*   FAIR      70  59  68 SW12      29.85F
SOUTH HILL*    PTSUNNY   70  59  67 S14G21    29.91F
LAWRENCEVILLE* PTSUNNY   69  64  82 S10       29.85F
EMPORIA*       CLOUDY    63  61  94 SE9       29.89F
$$

VAZ088>098-261800-
SOUTHEAST VIRGINIA

CITY           SKY/WX    TMP DP  RH WIND       PRES   REMARKS
NORFOLK        CLOUDY    68  63  84 S22G30    29.87F
VIRGINIA BEACH CLOUDY    72  63  73 S21G39    29.87F
NORFOLK NAVAL  CLOUDY    72  63  73 S18G29    29.88F
WEST POINT*    CLOUDY    67  64  89 S9        29.88S
SALUDA*        CLOUDY    64  63  96 S7        29.86F
NEWPORT NEWS   RAIN      69  63  81 S14G23    29.88F
LANGLEY AFB    CLOUDY    66  63  88 S10       29.86F FOG
FORT EUSTIS    LGT RAIN  64  64 100 W8        29.86R FOG
WILLIAMSBURG*  PTSUNNY   66  66 100 W15       29.89F
HR EXEC AP*    CLOUDY    68  63  83 S20G28    29.89F
FRANKLIN*      LGT RAIN  64  63  97 SW6       29.89F
WAKEFIELD      LGT RAIN  65  61  87 VRB7      29.88F
$$

VAZ020-022-025-037-045-261800-
WEST CENTRAL AND SOUTHWEST VIRGINIA

CITY           SKY/WX    TMP DP  RH WIND       PRES   REMARKS
STAUNTON*      MOSUNNY   74  51  45 SW14      29.76F
WAYNESBORO*    FAIR      72  51  47 SW13G18   29.76F
HOT SPRINGS VA CLOUDY    64  45  50 W14G24    29.82F
LYNCHBURG      MOSUNNY   68  56  65 S14       29.81F
DANVILLE       PTSUNNY   67  59  75 SW10      29.85F
SOUTH BOSTON*  FAIR      68  58  70 MISG      29.85F
MARTINSVILLE   CLOUDY    66  58  76 S3        29.87F
ROANOKE        MOSUNNY   71  54  54 SE9       29.80F
BLACKSBURG     MOSUNNY   71  46  41 W10G20    29.84F
DUBLIN*        MOSUNNY   74  50  42 W17       29.82F
MARION*        MOSUNNY   70  49  46 W18G28    29.85F
HILLSVILLE*    PTSUNNY   68  48  48 SW10G21   29.85F
RICHLANDS*     CLOUDY    63  49  60 SW18G25   29.85F
WISE*          CLOUDY    59  55  88 SW17      29.87F
ABINGDON*      CLOUDY    66  52  60 W14G22    29.85F
$$

MDZ021>025-VAZ099-100-261800-
SOUTHERN MARYLAND AND THE DELMARVA PENINSULA

CITY           SKY/WX    TMP DP  RH WIND       PRES   REMARKS
PATUXENT RIVER CLOUDY    67  60  78 S16G26    29.83F
BAY BRIDGE APT   N/A     54  54 100 S8        29.81F
LEONARDTOWN    CLOUDY    66  59  77 S7        29.83F
DOVER          CLOUDY    67  66  95 S16G22    29.78F
GEORGETOWN     PTSUNNY   70  59  68 S21G32    29.85F
EASTON         CLOUDY    68  68 100 SW20G26   29.86F
CAMBRIDGE      MOSUNNY   66  59  77 S12G28    29.83F
SALISBURY      LGT RAIN N/A N/A N/A S24G44    29.86F
OCEAN CITY     CLOUDY    56  52  86 SW13G18   29.90F
WALLOPS ISLAND LGT RAIN  54  52  93 SW20      29.90F
ACCOMACK*      RAIN      59  55  88 S16G22    29.87F
$$

NCZ012>017-030>032-261800-
NORTH CENTRAL AND EASTERN NORTH CAROLINA

CITY           SKY/WX    TMP DP  RH WIND       PRES   REMARKS
ROANOKE RAPIDS CLOUDY    64  61  88 S10G16    29.88F
RALEIGH        CLOUDY    70  60  70 SW12      29.89F
ELIZABETH CITY RAIN      65  62  90 S15G22    29.91F FOG
AHOSKIE*       RAIN      64  63  96 CALM      29.90F
EDENTON*       CLOUDY    67  64  87 S15G24    29.90F
CURRITUCK*     LGT RAIN  67  60  78 S14G25    29.90F
KILL DEVIL HLS CLOUDY    69  61  74 S12G18    29.92F
MANTEO         CLOUDY    64  58  81 S14       29.94F
CAPE HATTERAS  CLOUDY    67  61  81 S29G39    29.94F
TARBORO*       CLOUDY    65  59  81 S8        29.91F
GOLDSBORO      CLOUDY    67  67  99 S3        29.88F
WASHINGTON     PTSUNNY   72  63  75 S8G17     29.89F
GREENVILLE     CLOUDY    66  64  94 W10G18    29.92F FOG
NEW BERN       CLOUDY    75  61  61 S23G33    29.89F
WILMINGTON     MOSUNNY   75  59  57 W20       29.92F
$$

VAZ048-261800-
ELSEWHERE

CITY           SKY/WX    TMP DP  RH WIND       PRES   REMARKS
HARRISBURG PA  CLOUDY    52  42  69 S3        29.75F
BALTIMORE      CLOUDY    57  55  93 S6        29.79F FOG
ANNAPOLIS      FOG       48  46  93 SE8       29.80F VSB 1/2
ANDREWS AFB    CLOUDY    59  59  99 S14       29.79F FOG
PHILADELPHIA   LGT RAIN  57  55  93 SW7       29.81F FOG
HENDERSON NC   CLOUDY    69  55  60 SW13      29.88F
GREENSBORO     CLOUDY    65  56  72 SW13G22   29.87F
ROCKY MOUNT    CLOUDY    68  62  81 S13       29.90F
$$

VAZ100-261800-
MARINE

STATION/POSITION TIME  TEMP    WIND        PRES    WAVE   SWELL
                       AIR SEA DIR/SP/G            HT/PER HT/PER
                 (UTC) (F)     (DEG/KT/KT) (MB)    (FT/S) (FT/S)
BRANDYWINE LGT   1600   52 40  190/ 18/ 20 1011.4F
CAPE MAY NJ      1600   53 42  160/ 13/ 18 1011.3F
LEWES DE         1600   69 40  200/ 12/ 20 1011.3F
15NM E FENWICK I 1650   44 40              1012.5F   4/ 7
OCEAN-CITY-INLET 1600   45 40  210/ 15/ 18 1013.0F
WACHAPREAGUE VA  1600   55 49  210/ 10/ 15 1013.3F
THOMAS POINT MD  1700                        N/A
COVE POINT MD    1600   48     190/ 15/ 16 1011.3F
SOLOMONS ISLAND  1600      42                N/A
BISHOPS HEAD MD  1600   59 47  180/ 21/ 25 1011.0F
PINEY POINT MD   1600          210/ 19/ 22   N/A
CAMBRIDGE MD     1600   66 42  180/  9/ 15 1010.9F
LEWISETTA VA     1600   65 48              1011.0F
RAPPAHANNOCK LGT 1600          170/ 17/ 17 1013.1F
STINGRAY PT      1700   51 44  160/ 12/ 12   N/A     1/ 2
YORK RVR RNG VA  1600   59     190/ 15/ 16 1011.7F
YORKTOWN VA      1600   64 46  180/ 12/ 17 1011.8F
DOMINION TERM VA 1600   62     170/ 11/ 14 1012.7F
KIPTOPEKE VA     1600      50  170/ 20/ 22   N/A
CHES BAY BRIDGE  1600   64 45  160/ 17/ 24 1012.5F
CAPE HENRY VA    1600   68     180/ 14/ 19 1011.8F
CHESAPEAKE LGHT  1600   53     180/ 32/ 33 1013.1F
WILLOUBY STN VA  1600   66     180/ 21/ 26 1012.9F
S CRANEY ISL VA  1600          180/ 17/ 21 1012.5F
CAPE HENRY BUOY  1628      40                N/A     5/ 7
1ST LANDING BUOY 1700   63     200/ 21/ 31 1011.3F   3/ 3
OFFSHORE WE BUOY 1611      40                N/A     5/ 6   3/ 8
64NM E OF VA BCH 1650   62 54  170/ 21/ 27 1013.8F   7/ 7
DUCK PIER NC     1600   66 44  170/ 28/ 39 1012.9F
44056 DUCK FRF   1611      43                N/A     5/ 7
OREGON INLET NC  1600   65 54  160/ 13/ 19 1015.7F
HATTERAS NC      1600   67 56  180/ 17/ 22 1015.9F
CAPE LOOKOUT NC  1700   65     160/ 24/ 26 1013.7F
$$



USA.gov is the U.S. government's official web portal to all federal, state and local government web resources and services.